カタログに戻る

STARLINK-35639

運用中通信VLEO
NORAD 66382·PAYLOAD·🇺🇸 United States

打ち上げ Nov 8, 2025 から Cape Canaveral Space Force Station

Loading…

次のパス (今後24時間)

TLE

最新Source: CelesTrak SupGP

元期: Sep 14, 2026, 22:51 UTC

1 66382C 25257C   26257.95256944  .00029804  00000+0  88077-3 0  2574
2 66382  53.1591  55.7975 0000993  67.2033 177.1621 15.34369026    16

AllMySatでSTARLINK-35639をリアルタイム追跡

Download on the App Store